Groton, CT

4:36 AM EDT on August 27, 2016 (GMT -0400)
Groton-New London

Weather History for KGON - February, 2012

Change the Weather History Date:

Saturday, February 4, 2012

  Actual Average Record
Temperature  
Mean Temperature 39 °F -  
Max Temperature 46 °F 36 °F 59 °F (1991)
Min Temperature 30 °F 19 °F -12 °F (1965)
Degree Days  
Heating Degree Days 26    
Moisture  
Dew Point 22 °F    
Average Humidity 53    
Maximum Humidity 67    
Minimum Humidity 38    
Precipitation  
Precipitation 0.00 in - - ()
Sea Level Pressure  
Sea Level Pressure 30.19 in    
Wind  
Wind Speed 9 mph (NW)    
Max Wind Speed 16 mph    
Max Gust Speed 21 mph    
Visibility 10 miles    
Events      
Averages and records for this station are not official NWS values.
T = Trace of Precipitation, MM = Missing Value Source: NWS Daily Summary

Daily Weather History Graph

Daily Weather History Graph

Search for Another Location

Airport or City:

Trip Planner

Search our weather history database for the weather conditions in past years. The results will help you decide how hot, cold, wet, or windy it might be!

Date:

Astronomy

Feb. 04, 2012 Rise Set
Actual Time 6:56 AM EST 5:07 PM EST
Civil Twilight 6:27 AM EST 5:36 PM EST
Nautical Twilight 5:54 AM EST 6:09 PM EST
Astronomical Twilight 5:22 AM EST 6:42 PM EST
Moon 2:01 PM EST (2/4) 4:21 AM EST (2/4)
Length of Visible Light 11h 08m
Length of Day
10h 10m
Waxing Gibbous, 89% of the Moon is Illuminated
Feb 4
Waxing Gibbous
Feb 7
Full
Feb 14
Last Quarter
Feb 21
New
Feb 29
First Quarter

Hourly Weather History & Observations

Time (EST) Temp. Windchill Dew Point Humidity Pressure Visibility Wind Dir Wind Speed Gust Speed Precip Events Conditions
12:56 AM 37.9 °F 32.7 °F 23.0 °F 55% 30.29 in 10.0 mi West 6.9 mph - N/A   Overcast
1:56 AM 39.0 °F 32.8 °F 27.0 °F 62% 30.27 in 10.0 mi WSW 9.2 mph - N/A   Overcast
2:56 AM 39.0 °F 31.8 °F 28.9 °F 67% 30.27 in 10.0 mi West 11.5 mph - N/A   Overcast
3:56 AM 37.9 °F 32.1 °F 24.1 °F 57% 30.26 in 10.0 mi West 8.1 mph - N/A   Overcast
4:56 AM 35.1 °F 31.0 °F 21.9 °F 59% 30.25 in 10.0 mi West 4.6 mph - N/A   Mostly Cloudy
5:56 AM 36.0 °F 29.6 °F 21.9 °F 57% 30.24 in 10.0 mi WNW 8.1 mph - N/A   Mostly Cloudy
6:56 AM 34.0 °F 27.2 °F 21.9 °F 61% 30.25 in 10.0 mi West 8.1 mph - N/A   Clear
7:56 AM 36.0 °F 31.1 °F 24.1 °F 62% 30.26 in 10.0 mi WNW 5.8 mph - N/A   Partly Cloudy
8:56 AM 39.0 °F 32.3 °F 24.1 °F 55% 30.26 in 10.0 mi NW 10.4 mph - N/A   Overcast
9:56 AM 42.1 °F 35.2 °F 25.0 °F 51% 30.24 in 10.0 mi WNW 12.7 mph 20.7 mph N/A   Clear
10:56 AM 43.0 °F 35.4 °F 23.0 °F 45% 30.21 in 10.0 mi NW 16.1 mph - N/A   Clear
11:56 AM 45.0 °F 38.9 °F 23.0 °F 42% 30.18 in 10.0 mi NW 12.7 mph 18.4 mph N/A   Partly Cloudy
12:56 PM 46.0 °F 40.6 °F 21.9 °F 39% 30.15 in 10.0 mi West 11.5 mph - N/A   Mostly Cloudy
1:56 PM 44.1 °F 41.5 °F 30.0 °F 58% 30.13 in 10.0 mi Variable 4.6 mph - N/A   Clear
2:56 PM 45.0 °F 40.1 °F 21.9 °F 40% 30.11 in 10.0 mi NW 9.2 mph - N/A   Clear
3:56 PM 44.1 °F 38.1 °F 19.9 °F 38% 30.11 in 10.0 mi NW 11.5 mph - N/A   Clear
4:56 PM 42.1 °F 37.1 °F 19.9 °F 41% 30.11 in 10.0 mi NNW 8.1 mph - N/A   Clear
5:56 PM 37.9 °F 34.4 °F 18.0 °F 45% 30.12 in 10.0 mi NNW 4.6 mph - N/A   Clear
6:56 PM 37.9 °F 32.7 °F 21.0 °F 51% 30.12 in 10.0 mi NNW 6.9 mph - N/A   Clear
7:56 PM 37.0 °F 30.4 °F 19.9 °F 50% 30.13 in 10.0 mi North 9.2 mph - N/A   Clear
8:56 PM 35.1 °F 28.6 °F 21.0 °F 57% 30.13 in 10.0 mi North 8.1 mph - N/A   Clear
9:56 PM 34.0 °F 27.2 °F 19.9 °F 56% 30.13 in 10.0 mi North 8.1 mph - N/A   Clear
10:56 PM 32.0 °F 25.6 °F 19.9 °F 61% 30.13 in 10.0 mi North 6.9 mph - N/A   Clear
11:56 PM 30.0 °F 24.1 °F 18.0 °F 61% 30.12 in 10.0 mi ENE 5.8 mph - N/A   Clear